RH
17 20 29 30 34 38 41 50 44 40 40 39 48 47 37 33 33 31 25 31 33 20 23 32 25 21 24 34 36 21 18 29 34 39 43 45 50 53 53 49 43 41 39 37 38 37 35 33 32 32 29 24 21 20 18 17 17 15 13 12 12 12 12 12 12 14 15 15 17 21 24 23 22 24 25 26 27 31 35 38 46 55 61 60 57 56
23 23 36 39 39 40 50 64 57 47 47 42 39 32 31 36 32 28 31 43 42 22 27 42 29 26 42 51 51 32 18 24 30 38 44 45 47 50 50 49 47 46 44 41 39 38 36 35 34 33 30 25 24 24 20 18 18 16 14 13 13 12 12 14 13 13 16 18 19 21 23 23 21 20 20 20 19 20 20 20 24 32 37 38 37 35
35 33 37 38 45 48 59 72 57 50 55 49 42 32 35 44 34 35 52 58 51 32 32 41 29 35 57 56 53 46 27 19 21 27 35 41 45 48 50 52 51 50 47 43 39 38 36 35 35 34 31 27 27 29 24 21 20 16 14 14 14 14 14 15 16 19 20 19 21 23 25 26 23 21 21 21 20 19 18 16 16 19 24 25 24 21
33 41 44 42 50 46 52 63 50 45 56 55 43 30 38 46 33 40 57 57 54 41 33 38 34 42 58 53 47 44 31 21 18 19 25 34 40 41 45 50 52 50 46 43 39 37 37 36 37 36 32 29 31 34 29 24 22 17 15 15 15 16 17 17 22 25 21 18 22 24 26 28 27 24 24 22 21 21 20 19 17 16 17 18 19 19
27 37 41 45 54 46 39 48 45 34 42 58 52 36 41 46 35 40 48 52 63 58 44 39 39 53 59 47 42 38 30 25 21 19 22 27 32 35 40 46 49 49 44 40 38 36 37 36 36 37 34 31 32 36 34 27 22 18 16 16 17 18 19 21 25 25 21 20 22 23 25 27 28 26 26 24 23 23 22 21 21 19 17 16 16 16
27 28 30 33 47 51 41 45 52 42 39 54 60 51 46 43 39 45 49 54 62 59 49 33 36 68 74 51 44 40 35 33 26 24 23 20 23 30 39 43 46 49 45 40 37 35 36 36 37 38 36 34 32 36 37 32 24 20 17 16 18 19 20 22 25 23 22 21 21 21 23 24 26 26 26 25 25 25 25 23 23 22 21 19 18 17
33 34 37 32 40 50 44 44 53 52 44 43 52 58 54 48 47 50 49 47 49 48 50 46 41 61 73 57 47 41 35 34 30 30 27 19 18 23 30 35 42 48 46 41 38 36 35 36 39 38 36 35 33 35 40 38 28 20 18 17 18 20 20 21 24 25 24 23 21 22 23 25 26 26 26 26 25 26 26 25 25 24 23 23 21 21
34 32 40 39 42 46 42 43 50 52 44 40 53 61 53 44 44 54 49 41 48 44 53 71 53 42 58 57 48 45 38 33 30 30 30 23 18 20 22 27 36 42 43 42 40 37 36 37 38 36 35 35 34 36 41 41 33 22 18 18 19 20 21 20 22 25 24 23 22 22 24 26 27 28 29 27 27 28 27 27 27 25 24 24 23 23
36 25 34 42 39 39 44 51 55 47 36 43 59 55 44 39 46 58 49 43 54 40 43 72 53 33 57 63 52 47 36 32 32 29 30 26 19 18 21 23 28 34 38 39 37 35 35 36 35 33 33 34 36 37 39 42 38 26 18 18 20 20 21 21 22 24 25 24 24 24 24 25 26 30 31 28 28 29 29 28 28 27 26 25 25 25
30 19 32 41 35 41 51 56 57 41 30 44 56 48 44 54 62 59 46 45 52 39 42 65 49 31 52 66 59 42 30 34 36 31 30 26 19 18 21 21 24 29 34 37 35 33 32 31 30 32 36 36 36 37 40 43 41 31 21 19 20 20 21 22 22 24 26 25 27 26 25 25 27 28 29 28 29 31 31 30 29 28 28 27 26 26
26 18 32 34 27 41 47 45 49 38 31 39 43 41 42 53 63 69 70 54 40 47 59 63 52 35 42 63 61 42 35 38 34 31 30 25 21 20 21 22 23 26 31 34 34 32 31 33 35 38 40 39 38 40 42 44 44 36 24 20 21 20 20 22 23 24 27 28 29 28 26 25 26 27 27 27 28 31 31 31 31 29 28 28 27 27
34 18 30 28 18 30 27 26 33 32 38 41 40 44 40 44 53 63 73 52 35 55 65 64 59 40 39 58 57 44 43 40 35 33 31 28 27 24 23 23 23 25 27 28 32 35 37 39 41 42 42 42 41 42 43 43 45 41 31 22 21 21 21 22 24 25 27 30 31 31 28 26 27 27 26 26 28 31 33 33 33 31 29 29 29 29
40 28 35 25 17 22 18 26 30 29 42 40 38 48 42 43 50 54 62 53 50 59 55 60 59 41 46 54 47 45 41 36 36 33 30 32 32 28 25 22 23 27 29 29 31 35 38 37 36 37 38 41 41 39 41 42 42 44 38 28 23 23 23 23 25 25 26 30 31 32 31 28 29 28 26 28 30 33 35 36 35 33 32 32 31 30
41 45 42 24 20 21 16 31 32 27 35 27 29 43 40 44 48 55 64 53 50 55 54 60 52 45 54 45 40 49 41 34 36 32 33 36 36 34 28 24 23 24 27 32 35 34 32 30 31 32 32 34 35 34 38 40 41 43 42 37 32 29 27 26 27 26 26 28 29 31 31 30 31 30 28 29 31 34 37 37 37 35 34 34 33 32
38 43 42 28 25 22 17 28 32 33 34 28 32 34 36 50 51 51 56 43 42 52 53 47 42 53 54 34 40 46 34 35 36 33 37 35 33 32 28 29 29 24 23 26 34 40 35 28 26 28 28 28 30 31 34 37 39 42 44 42 39 36 35 34 31 28 26 27 28 29 30 31 31 32 33 32 33 36 38 38 38 38 37 36 35 35
29 33 45 32 22 20 16 19 23 25 30 35 37 28 28 45 48 45 49 51 51 50 50 43 45 66 57 35 44 43 33 40 35 31 34 30 28 24 23 30 30 31 31 24 25 34 39 39 34 27 25 24 26 29 32 35 38 41 42 42 42 41 41 41 39 34 30 28 29 29 28 29 30 33 36 35 35 36 37 37 37 38 39 39 38 37
30 39 49 31 20 22 17 18 17 14 28 40 32 26 31 33 37 42 49 64 62 46 53 52 45 62 54 33 42 45 42 45 37 33 33 29 28 23 23 25 19 23 32 33 32 30 34 43 44 41 37 32 30 29 30 32 34 37 39 40 41 42 44 46 46 44 39 34 32 32 32 31 31 33 33 32 34 37 37 36 37 39 41 41 40 39
42 49 50 31 21 22 17 19 21 16 25 36 30 31 37 34 45 52 46 63 68 52 62 61 46 54 52 39 46 48 46 49 45 40 35 31 29 27 25 20 13 13 16 25 34 34 37 41 44 48 49 48 47 41 35 31 31 34 38 39 40 41 43 45 48 49 48 44 39 37 36 35 34 34 33 33 36 40 40 37 36 38 39 41 41 39
44 47 53 44 26 26 26 20 25 29 25 28 30 30 33 40 58 60 47 55 60 52 65 71 58 53 49 47 50 47 46 51 49 43 39 38 34 30 26 17 13 13 10 13 19 25 34 40 43 47 48 51 53 49 44 41 39 38 38 39 39 41 42 43 47 50 51 51 48 43 40 39 39 37 36 36 39 43 42 37 36 38 40 43 43 41
47 40 50 53 32 28 40 35 37 45 36 29 30 32 43 52 55 51 46 50 51 54 69 69 56 52 54 55 50 47 53 53 47 46 45 42 34 27 24 18 15 13 11 12 12 14 21 26 35 43 46 49 50 49 47 46 47 46 44 43 41 41 44 45 48 50 51 53 53 50 47 45 45 43 41 39 41 43 40 37 39 42 46 50 47 44
51 39 48 63 46 32 42 46 46 51 49 45 39 38 46 48 45 42 40 46 50 59 74 67 55 61 70 66 51 47 56 53 46 47 44 36 30 25 21 18 16 14 13 13 12 13 15 16 21 28 37 46 49 51 52 50 50 51 52 51 44 42 45 46 48 49 51 54 54 54 53 50 48 46 43 42 42 43 41 40 43 48 54 56 52 49
47 47 55 63 52 40 45 46 40 40 49 53 43 36 37 40 43 38 39 57 59 54 68 70 60 63 67 66 57 51 57 55 45 41 37 30 25 22 20 18 16 16 16 16 15 13 15 16 15 16 23 34 42 47 49 52 54 53 52 52 51 50 47 45 45 46 48 53 54 55 54 52 52 49 46 44 43 42 40 40 45 53 59 59 56 54
53 62 58 53 53 50 44 39 33 29 35 41 40 44 46 45 47 43 48 71 68 56 65 67 62 68 71 69 61 51 53 50 36 31 30 26 22 19 19 18 17 17 17 18 17 15 16 18 18 19 21 28 37 42 44 47 50 51 50 52 58 57 51 51 51 47 49 52 52 54 55 56 56 54 51 46 43 40 36 37 45 52 57 60 60 58
53 61 51 54 69 60 40 38 40 37 35 33 37 48 47 39 46 58 67 72 65 61 66 61 60 72 79 75 59 43 41 38 29 28 27 23 22 20 18 18 19 19 17 17 18 19 20 19 20 23 25 28 32 37 44 47 49 52 53 55 60 56 51 56 60 59 60 58 54 54 56 57 57 57 54 46 41 38 34 37 44 49 56 62 64 63
40 58 53 50 59 54 49 52 48 49 49 39 35 41 42 37 42 57 66 62 59 65 65 61 64 67 69 69 56 42 39 34 28 29 26 23 22 22 23 23 21 20 20 20 21 22 22 22 22 24 25 27 28 30 36 44 50 55 56 56 58 55 52 53 55 59 61 60 60 59 58 57 57 56 51 44 41 40 39 43 46 50 58 64 66 69
34 57 56 49 54 54 57 56 51 56 56 44 39 38 38 38 36 44 51 48 59 74 66 61 68 65 59 57 51 48 45 34 28 28 26 26 25 25 27 25 23 24 24 23 24 24 25 25 25 26 25 25 26 27 29 33 40 48 54 58 59 58 58 56 54 52 52 53 57 59 61 60 57 56 52 47 47 49 51 52 50 52 60 67 71 71
53 60 56 59 64 57 48 45 53 59 47 38 41 38 39 45 45 50 51 46 60 72 61 60 64 54 49 47 43 46 42 35 37 33 25 27 29 29 30 28 28 29 28 27 27 26 27 27 26 27 27 25 25 26 26 27 30 35 44 55 62 66 65 62 58 54 52 51 50 54 63 64 59 58 60 58 58 61 65 62 55 56 65 71 73 71
59 55 57 61 57 53 48 43 49 50 39 37 42 40 44 51 47 47 49 52 61 57 51 67 69 51 47 46 35 33 33 37 45 37 26 30 34 33 32 31 31 30 29 29 29 29 30 29 28 27 26 28 28 27 26 27 28 29 32 40 51 65 73 73 68 58 51 50 46 46 55 63 64 62 64 68 69 73 77 69 61 64 71 75 73 73
47 49 58 57 52 57 55 48 51 52 45 42 42 43 47 50 48 46 50 59 62 49 46 65 68 52 47 48 41 34 31 34 37 32 31 37 38 36 35 33 32 32 32 32 32 34 34 33 33 31 29 31 32 30 29 28 29 30 29 30 34 44 59 73 78 73 65 61 57 52 53 61 66 65 66 72 75 82 83 73 66 70 75 76 75 74
47 59 65 54 51 59 55 51 54 52 49 46 43 47 50 53 57 53 54 61 59 51 50 56 61 55 47 48 47 35 26 30 34 34 38 41 40 39 38 36 38 40 40 40 39 37 36 36 39 39 38 37 35 35 34 31 32 32 31 32 31 31 38 51 63 75 80 78 76 76 77 81 80 75 73 75 79 86 85 74 69 74 77 78 77 70
45 63 71 55 54 66 62 56 53 51 56 54 48 52 55 57 61 55 55 59 54 51 54 52 56 60 53 48 44 32 28 37 44 44 44 43 43 44 42 42 46 47 46 46 44 41 39 38 39 39 40 40 38 38 38 35 34 34 32 32 31 29 32 37 44 56 69 76 78 77 77 82 86 84 82 81 84 89 85 73 70 74 77 78 73 62
48 63 75 63 58 68 64 55 55 56 58 54 52 55 53 53 60 57 54 58 53 47 47 46 51 62 63 57 51 49 51 51 52 51 46 43 46 49 48 48 49 49 48 47 46 45 44 41 40 40 39 40 40 40 39 38 36 35 33 30 26 23 23 28 35 43 55 69 80 77 66 66 78 87 87 85 88 89 82 72 70 74 77 74 66 56
56 55 66 66 61 69 67 56 56 59 57 60 66 62 48 47 56 53 51 58 57 47 44 48 53 61 70 70 64 67 69 62 58 53 46 46 52 53 52 51 49 46 46 46 44 44 44 43 42 41 39 39 39 38 38 38 37 36 34 30 24 20 19 21 26 34 44 57 75 86 77 65 72 84 84 84 89 88 78 71 72 74 72 65 59 56
63 53 62 65 61 74 77 60 60 68 63 63 70 63 48 47 51 49 52 62 62 55 56 61 58 61 74 80 75 73 70 62 52 44 45 52 55 52 49 45 42 40 38 37 36 35 35 34 33 32 31 31 31 32 33 34 34 34 33 30 25 21 22 24 23 26 34 43 56 76 81 72 71 77 77 80 86 85 78 76 76 71 64 60 59 59
57 56 64 64 60 72 71 57 67 76 59 51 62 65 59 58 57 54 60 68 68 65 65 63 64 73 78 75 70 63 55 49 40 35 46 56 52 45 41 37 35 36 34 33 33 31 30 31 31 30 28 27 27 28 27 27 28 29 28 27 25 23 24 30 31 28 30 36 42 56 74 79 73 72 77 82 87 87 85 83 77 67 61 59 60 62
53 59 64 64 66 71 68 68 77 70 51 47 55 61 60 56 49 46 53 66 70 70 69 65 70 80 74 64 64 58 49 45 38 33 44 52 45 38 38 40 40 40 40 39 39 38 38 40 41 39 36 33 31 30 28 27 28 29 28 26 25 24 26 34 40 36 34 39 44 52 71 80 72 72 81 85 87 90 88 79 68 62 60 60 61 65
51 61 63 63 67 69 73 82 78 61 57 55 50 59 70 62 52 49 51 61 71 74 74 70 73 80 73 60 58 58 54 51 45 41 42 42 39 38 42 46 48 49 49 46 45 45 43 41 40 38 36 34 32 32 31 29 29 31 31 28 27 27 29 35 43 44 40 44 53 62 76 82 78 80 86 86 87 89 79 67 61 59 59 60 62 63
50 58 62 64 69 67 68 79 79 72 78 73 62 73 83 76 74 69 55 54 63 63 63 66 72 80 76 61 55 59 58 56 55 49 38 34 38 41 41 43 48 53 54 51 49 47 42 39 36 33 32 34 36 39 41 42 43 43 40 38 36 36 36 38 45 50 50 56 69 79 85 87 87 89 90 88 87 80 68 61 59 58 59 61 62 62
57 64 63 62 70 71 66 74 79 74 79 83 80 83 80 71 73 71 61 63 63 50 47 57 66 69 63 55 57 62 59 60 63 51 33 32 41 43 42 46 50 54 56 54 55 53 45 40 37 34 37 44 50 56 61 63 64 63 60 55 51 52 50 49 54 60 60 68 82 90 92 91 88 87 88 87 79 68 61 59 58 58 59 60 58 54
71 78 71 64 73 77 71 77 78 67 70 82 83 80 75 64 60 69 81 85 69 46 41 48 52 52 49 48 57 64 60 60 60 47 33 36 42 42 46 52 53 56 57 57 60 57 46 41 43 45 51 58 65 72 79 81 81 81 80 74 69 66 62 61 67 71 75 84 92 94 93 90 85 81 81 78 68 59 57 56 55 55 53 48 43 38
74 75 73 73 80 79 74 78 78 70 74 82 78 70 65 60 67 87 95 80 58 44 40 40 41 43 44 45 53 60 55 47 44 40 38 41 42 43 48 53 57 60 61 61 61 53 42 45 57 66 69 70 75 82 90 93 90 88 87 84 78 72 67 70 77 81 89 97 95 91 90 88 84 80 74 66 59 55 53 50 46 41 35 31 28 25
74 71 73 77 77 79 83 84 81 76 73 74 72 63 54 61 80 88 74 53 45 44 41 39 40 40 42 44 48 51 47 40 39 40 40 43 47 49 50 51 54 56 57 58 54 45 43 54 68 76 78 78 81 87 91 92 90 89 90 86 78 72 72 79 88 93 98 98 91 87 86 82 78 72 64 57 52 47 42 37 31 27 23 21 20 20
65 64 76 80 73 76 84 81 81 81 68 60 62 58 51 58 66 60 49 44 46 47 47 49 48 46 46 48 48 48 47 44 42 40 40 46 51 52 52 53 54 53 53 54 49 44 51 65 73 78 79 79 82 87 89 89 89 88 86 81 76 77 83 91 98 100 96 90 85 82 78 71 64 56 50 44 38 33 31 30 30 31 30 27 26 30
61 62 78 83 72 72 82 83 82 74 54 45 54 55 48 47 44 42 46 48 43 42 47 52 51 48 48 48 47 48 48 46 44 42 45 51 54 55 57 58 58 58 57 56 51 49 59 73 77 76 76 77 80 84 86 87 86 85 84 84 87 92 96 99 100 95 87 83 80 71 60 53 46 40 36 33 30 32 36 38 42 42 38 36 40 45
64 60 67 75 68 65 71 75 71 56 40 39 46 43 37 37 39 40 41 39 36 37 40 45 48 46 45 45 45 46 45 45 44 45 50 57 61 63 65 65 65 67 65 60 55 55 66 77 75 72 75 80 80 82 84 85 83 85 92 96 97 99 100 99 97 90 80 71 63 53 45 42 38 34 34 35 37 41 45 48 49 43 37 40 49 53
57 48 54 67 71 65 59 56 50 42 37 38 39 37 35 37 40 39 35 34 36 37 38 44 47 45 45 46 47 47 45 44 44 46 52 59 65 68 70 71 72 70 66 61 60 65 74 76 70 71 80 83 81 86 92 89 86 91 99 100 99 100 98 94 88 79 66 55 49 48 47 44 41 38 38 42 46 48 50 51 46 37 38 48 53 48
59 49 54 65 69 70 71 64 49 41 42 41 39 38 36 34 36 36 34 35 37 37 41 45 45 45 47 48 49 50 48 46 48 50 52 57 65 71 74 74 72 68 67 70 73 75 76 72 69 76 83 82 84 94 98 91 86 91 97 98 98 98 95 89 82 72 60 53 51 49 45 43 41 40 42 47 50 51 53 50 39 35 43 48 41 31
63 57 67 72 69 71 74 63 47 42 44 42 39 37 33 33 36 36 36 40 40 41 44 45 45 48 49 47 50 53 52 50 50 52 56 60 67 73 74 72 72 73 76 80 79 75 72 70 74 80 83 82 88 97 98 93 90 91 94 96 96 92 86 77 67 58 52 48 44 39 39 41 43 44 48 51 52 53 52 42 29 29 35 34 28 27
60 63 70 73 72 75 71 58 49 52 51 42 37 38 36 35 37 37 39 42 42 42 43 42 44 48 47 48 53 57 59 57 55 56 63 68 72 75 75 74 75 78 80 79 75 70 68 70 76 82 82 82 90 97 99 97 94 91 92 92 86 76 67 60 51 45 42 39 37 38 43 46 47 48 50 52 53 52 42 28 21 25 28 31 36 39
67 72 70 72 82 86 74 57 53 59 59 48 42 41 39 37 39 42 42 43 42 42 43 44 45 46 48 51 55 59 63 64 62 66 72 74 77 78 76 75 78 80 79 76 71 70 73 75 77 81 81 82 90 98 100 98 95 90 85 81 74 67 63 60 54 47 42 38 37 41 46 47 49 50 51 54 53 44 30 25 31 36 37 41 45 43
68 67 64 70 80 76 60 50 50 56 57 51 44 42 41 40 43 46 44 43 43 43 46 50 52 53 56 57 57 59 62 61 64 72 78 79 79 79 78 79 82 81 80 76 71 72 78 80 80 83 82 82 91 99 98 96 94 89 80 75 75 75 70 61 51 45 43 42 43 45 47 49 50 51 53 54 47 33 27 33 40 43 45 48 48 46
Wind_Speed
2 1 1 4 6 7 7 5 6 4 5 4 4 4 1 1 3 5 5 6 2 3 3 4 6 5 3 8 7 0 12 17 16 16 18 21 23 28 32 35 39 40 39 37 34 31 28 26 24 23 21 21 20 18 17 16 14 13 14 14 14 15 15 13 11 11 11 9 9 9 8 6 6 5 4 4 4 6 7 9 11 13 14 15 15 14
3 1 5 8 9 7 5 4 5 4 4 3 3 2 3 0 3 5 4 6 3 3 3 4 3 5 5 6 8 4 4 10 16 18 20 24 27 29 34 36 36 35 34 35 35 33 32 30 28 25 24 23 22 21 20 18 15 15 15 14 15 15 14 13 11 11 10 10 9 9 8 7 6 5 3 2 2 0 2 4 7 9 10 11 12 12
4 3 10 9 5 3 2 3 5 5 5 3 2 2 3 1 3 6 5 6 4 3 3 4 2 5 7 6 7 7 4 6 15 22 26 28 28 28 32 33 31 30 31 35 38 37 35 33 31 28 26 25 24 22 21 19 18 17 16 16 16 15 14 13 13 11 10 11 10 8 6 6 6 6 5 5 5 5 4 3 2 2 4 5 6 8
2 6 9 3 6 5 2 2 5 4 3 2 3 2 3 3 1 3 5 6 4 2 1 1 4 5 6 5 6 7 6 4 7 18 27 31 31 32 34 32 32 33 34 37 40 40 38 36 34 32 29 28 27 25 23 22 21 19 17 17 17 15 14 14 14 13 11 11 10 8 6 5 5 5 5 7 7 8 8 8 8 7 6 4 3 4
6 9 4 2 5 6 2 2 4 4 1 2 2 4 3 4 2 4 4 6 5 5 2 4 5 6 5 4 6 5 5 6 3 6 17 27 33 36 34 32 34 36 38 41 42 42 40 39 37 35 32 30 29 28 27 25 23 20 18 18 17 16 15 15 15 15 13 12 10 9 7 5 6 6 4 6 7 8 9 10 10 10 10 9 7 4
8 8 3 2 3 4 5 4 4 6 2 4 3 6 7 6 4 2 2 4 5 5 4 3 2 5 5 3 6 5 4 5 5 3 10 18 24 30 32 34 35 37 39 42 43 43 41 40 40 37 34 33 32 31 29 26 23 21 20 20 19 17 16 16 16 15 13 11 10 8 7 5 6 7 5 5 6 7 8 9 10 10 10 11 11 9
5 5 2 2 4 3 5 4 5 6 4 2 5 7 7 5 4 3 2 3 2 2 4 2 3 4 6 4 6 5 5 7 6 5 10 15 17 22 30 36 37 38 41 42 43 43 42 42 42 39 38 36 35 33 30 27 24 22 22 22 21 19 17 16 16 16 14 12 10 8 6 5 5 7 5 4 5 6 7 7 8 9 9 10 11 12
2 5 5 2 1 3 4 4 5 7 7 2 5 6 7 5 5 5 5 3 2 3 3 4 3 2 3 5 6 5 6 9 9 8 10 15 19 18 23 33 38 41 44 45 45 44 44 44 43 40 38 38 37 34 32 29 26 25 24 23 22 20 18 16 16 16 15 13 11 9 7 6 6 6 5 4 4 4 5 5 6 7 7 8 9 10
1 2 4 0 3 2 4 6 7 8 4 6 6 6 5 4 5 6 6 3 0 1 3 5 2 2 4 6 5 5 4 7 9 10 9 13 21 21 19 25 35 41 45 47 47 46 46 45 43 40 38 38 37 35 34 31 28 26 26 25 24 22 19 17 16 17 16 13 11 10 9 8 7 7 7 5 3 3 3 3 4 4 5 6 7 8
3 5 5 4 3 3 6 5 7 9 4 4 4 4 3 4 4 4 5 3 2 2 4 6 1 2 4 5 4 3 2 6 7 7 8 14 21 22 19 19 29 39 43 47 48 47 46 44 42 41 40 39 38 36 35 33 29 28 28 28 26 24 21 19 18 17 17 15 14 12 11 10 9 9 8 6 4 4 3 2 2 2 3 4 5 6
5 4 3 4 4 6 6 4 5 7 5 3 5 5 5 5 4 3 2 3 2 2 6 7 4 3 2 5 4 3 3 4 4 6 9 13 20 24 22 14 22 36 42 45 48 47 46 44 43 42 41 39 38 37 37 35 31 29 30 30 28 26 24 22 20 19 18 17 16 14 13 12 10 9 8 6 5 5 4 4 3 2 2 2 3 4
7 3 2 3 5 4 3 1 1 1 2 5 5 4 2 3 4 4 4 3 1 5 7 6 3 4 2 4 4 5 5 4 4 6 9 11 18 23 22 13 13 32 41 43 46 47 44 43 44 43 41 40 39 38 38 37 34 31 32 32 30 29 27 25 23 21 20 19 18 17 15 14 12 10 9 7 6 5 5 4 5 5 3 2 1 2
4 4 3 4 3 4 4 0 3 6 6 5 4 5 3 2 3 2 3 1 2 5 5 3 2 2 4 6 6 6 7 8 6 7 10 9 14 21 23 12 7 22 35 41 44 45 44 44 44 43 42 40 39 38 38 38 36 34 33 33 33 31 29 28 26 24 23 21 20 19 17 16 14 12 11 9 7 6 6 6 7 6 4 3 3 2
3 5 5 4 3 2 5 3 2 3 1 3 4 4 3 1 1 2 3 1 3 5 4 2 2 2 3 3 5 6 6 7 6 5 4 8 15 24 27 16 1 12 23 33 38 41 42 43 43 42 41 40 38 37 37 37 37 36 35 35 34 32 30 30 28 26 25 23 21 20 19 17 16 15 13 11 9 7 7 7 7 7 6 5 5 4
0 4 3 1 2 1 3 4 6 4 3 4 4 5 4 4 3 3 3 2 3 4 4 3 1 2 2 1 5 7 5 5 5 7 17 23 24 29 33 28 13 3 13 21 29 35 39 40 40 38 37 37 36 36 36 36 37 37 36 35 34 32 31 30 29 28 27 25 23 22 21 20 18 17 15 13 10 9 9 9 8 8 8 7 7 7
1 5 6 4 2 2 3 3 5 6 2 3 2 4 2 4 5 2 2 4 3 1 3 2 2 3 3 3 6 6 3 7 10 16 24 26 28 34 35 34 29 15 2 12 21 29 33 36 37 36 35 34 35 36 36 36 36 37 36 35 34 32 31 29 28 29 28 27 25 24 23 22 20 19 17 15 13 11 10 10 9 9 9 8 8 9
1 4 6 4 3 2 3 1 1 2 1 1 1 2 4 3 6 3 1 0 3 1 3 1 2 4 1 1 6 5 5 8 11 16 20 21 28 33 30 30 34 30 19 5 9 20 29 33 34 36 35 35 36 36 35 34 34 35 34 34 33 33 31 30 29 28 27 27 27 26 24 23 22 20 18 16 14 13 12 11 11 11 10 10 10 11
3 3 6 0 1 3 1 5 4 4 3 4 1 4 3 1 4 3 0 3 4 1 4 1 3 4 1 1 5 6 6 7 8 9 13 18 24 26 25 28 31 32 30 24 14 2 12 23 30 34 35 35 36 37 35 33 33 34 34 33 32 32 31 29 29 28 27 27 27 27 26 25 23 21 19 17 15 14 14 13 13 13 12 12 12 12
3 2 7 1 2 5 4 5 2 7 5 4 3 2 1 1 1 1 1 0 1 2 3 3 2 3 3 4 2 1 3 4 6 6 9 12 15 18 21 27 30 30 29 28 27 22 14 2 12 24 31 34 35 35 36 36 37 36 35 34 32 31 29 27 28 28 27 27 27 27 27 25 24 21 19 17 16 16 16 15 15 14 14 14 14 14
2 2 5 4 2 3 5 2 2 4 6 4 2 3 2 3 3 0 1 2 2 3 2 4 3 2 5 5 6 6 5 4 5 6 6 6 10 15 19 23 26 27 27 26 25 24 23 20 12 6 16 27 32 33 35 37 39 40 39 37 34 32 31 30 29 28 27 27 27 27 26 26 25 22 20 18 17 18 18 17 16 16 16 16 16 16
2 2 4 6 4 2 2 0 4 3 1 2 3 3 3 1 1 0 0 2 2 3 3 1 2 4 5 4 6 7 6 5 5 5 4 5 10 14 17 21 23 24 24 24 22 20 20 19 17 14 10 12 21 29 34 37 38 39 40 40 37 35 33 32 31 29 29 28 27 27 27 27 26 24 21 20 19 19 19 19 19 19 18 18 18 17
1 1 2 3 4 2 4 4 4 5 4 4 2 1 1 1 1 1 2 2 1 2 3 3 2 6 5 2 2 5 5 5 5 6 5 7 12 13 16 18 19 21 22 22 21 19 18 16 14 13 11 9 10 16 25 32 36 37 38 39 39 38 36 33 31 30 30 29 29 28 27 27 27 26 23 22 21 20 21 21 21 20 20 20 20 19
2 3 2 2 3 4 7 6 3 4 3 5 2 1 2 2 3 3 3 3 1 1 1 4 1 5 5 3 2 3 4 5 4 6 6 8 12 14 16 16 18 19 20 19 19 18 16 15 13 11 9 9 9 9 13 19 27 33 37 38 38 38 38 37 34 32 31 30 30 29 27 27 28 28 26 24 23 22 22 23 22 22 21 21 20 19
2 3 2 2 3 4 8 6 2 1 4 6 2 2 4 2 3 5 5 2 2 2 1 2 1 5 5 4 2 3 3 2 2 4 6 7 9 13 14 14 16 17 17 16 16 14 13 11 10 11 11 10 10 9 10 12 16 22 30 36 38 38 38 38 38 36 36 34 32 30 29 29 29 30 28 26 25 25 25 24 23 23 22 21 21 20
1 0 2 1 4 5 7 6 5 5 3 4 0 2 2 2 4 2 1 3 1 3 4 4 3 5 4 5 4 2 2 3 2 2 4 6 8 10 11 12 13 13 14 14 12 11 10 9 10 11 10 10 10 10 10 10 13 17 21 27 33 36 38 37 36 35 35 36 37 35 33 31 31 32 31 29 28 27 27 26 24 23 22 21 20 20
1 1 2 2 2 3 2 3 3 3 1 1 0 1 1 1 2 0 1 3 1 3 3 4 4 4 5 5 6 5 4 6 6 2 2 5 7 9 9 10 10 12 12 12 11 11 10 9 10 12 11 11 10 10 11 10 10 12 16 21 26 31 35 36 37 35 33 35 38 39 37 35 34 35 34 32 31 29 28 27 25 24 22 21 20 19
3 1 2 5 5 6 5 6 5 3 1 3 2 2 2 2 1 3 3 2 3 3 2 4 5 3 7 6 5 5 4 5 7 4 1 4 6 7 7 7 9 11 11 11 11 11 11 10 11 12 13 13 13 13 13 12 11 10 12 16 22 28 31 34 36 36 35 34 37 40 42 40 38 37 37 35 33 31 28 26 25 23 21 20 19 19
4 2 2 5 5 7 7 7 5 1 3 5 4 3 5 5 3 5 4 5 4 3 5 6 5 4 7 6 4 6 6 6 6 4 3 3 5 6 6 7 9 9 10 11 12 13 13 13 13 14 14 14 14 14 14 13 12 10 10 12 15 21 28 32 36 37 37 37 39 40 42 43 41 39 38 37 35 32 29 26 24 22 21 19 19 18
4 2 3 3 4 6 5 6 5 3 3 5 5 6 6 6 5 6 7 6 6 5 8 6 6 7 7 5 5 7 7 7 7 5 4 3 5 8 8 9 10 10 11 12 12 12 13 14 14 15 16 15 15 14 14 14 13 12 11 12 12 14 19 25 32 37 40 42 43 42 43 45 46 42 39 38 36 33 29 25 23 21 20 19 17 16
3 2 3 1 3 5 5 5 4 4 4 4 5 7 6 7 8 8 7 6 7 8 9 6 7 9 7 6 8 11 12 10 5 1 2 4 7 9 10 10 10 10 10 11 11 12 13 14 15 16 17 18 18 17 17 16 16 15 14 14 14 14 15 18 23 30 36 41 43 44 44 45 46 44 41 39 37 33 29 25 22 20 18 16 15 14
2 2 2 2 3 6 6 5 4 3 4 5 7 6 5 6 7 6 4 4 5 7 8 7 7 9 6 6 10 14 13 5 2 3 3 4 7 8 8 8 9 9 10 10 11 12 14 15 17 18 20 21 22 22 21 21 20 19 19 18 18 18 18 19 21 24 28 34 37 39 41 41 42 43 43 39 36 32 28 24 21 19 16 15 14 14
2 1 2 4 3 6 4 5 6 4 2 6 7 5 7 7 6 5 4 5 6 6 7 6 5 6 6 4 5 6 4 2 4 2 2 4 6 6 6 7 8 10 11 12 13 14 15 17 19 21 22 24 25 25 26 26 26 25 25 24 24 23 22 23 24 23 25 29 32 34 36 38 39 40 41 39 35 31 27 24 20 18 16 15 14 13
2 1 1 1 2 6 4 3 5 5 5 8 7 8 10 10 7 5 4 5 7 6 4 5 5 6 4 2 2 1 2 1 1 1 3 5 4 4 5 7 9 12 13 15 16 17 19 20 22 24 25 26 27 28 29 30 30 31 30 30 30 29 27 25 26 26 27 27 31 34 35 35 35 35 35 36 34 31 27 24 20 17 16 15 13 12
4 4 3 3 3 5 4 2 4 4 6 8 5 8 11 10 9 7 6 6 7 5 3 5 5 4 3 4 6 4 2 1 2 3 4 3 2 3 6 10 13 16 17 18 20 21 22 24 25 27 28 29 29 30 31 32 33 34 34 34 34 32 29 26 26 28 29 28 30 35 36 34 32 29 30 33 32 29 25 21 18 16 15 14 13 13
3 5 3 2 3 4 2 2 2 7 8 5 2 4 7 7 8 7 5 6 5 5 4 5 5 4 4 4 6 6 2 2 3 5 3 1 2 5 11 13 16 18 20 21 22 23 24 25 26 28 29 30 31 31 32 34 34 35 36 36 36 35 32 28 27 28 30 30 29 32 35 34 29 27 30 32 29 24 20 17 16 15 15 14 14 14
4 3 2 1 2 1 1 3 5 5 5 5 5 3 2 1 3 1 5 6 3 4 5 5 4 4 3 4 6 4 1 3 5 6 4 3 3 9 12 14 16 18 19 20 21 22 23 24 26 28 29 30 31 32 33 34 34 36 37 36 35 36 34 31 29 29 30 31 30 31 34 33 30 29 32 30 25 21 19 17 16 15 14 14 14 14
5 3 2 2 3 2 3 3 3 4 7 6 4 3 2 2 2 2 3 4 4 3 3 3 3 4 4 5 5 3 2 2 4 6 6 5 8 13 14 16 17 18 19 20 20 21 22 24 27 29 30 31 32 33 33 34 35 37 38 37 35 34 34 33 32 31 31 31 31 31 33 35 34 32 31 29 26 23 21 19 17 16 15 15 14 13
4 5 4 3 2 2 2 3 3 3 5 5 3 4 4 5 6 4 2 1 4 3 1 2 3 5 5 6 6 4 1 2 3 6 7 9 13 16 18 19 19 19 20 20 21 22 24 27 29 30 32 33 33 33 32 33 34 36 39 39 36 33 33 34 33 32 31 31 31 31 34 36 36 33 32 30 27 24 22 19 17 16 14 14 13 11
2 1 4 4 1 1 3 4 3 3 5 5 5 7 7 9 7 1 3 1 5 4 3 2 5 6 7 8 6 3 1 3 3 9 15 19 18 19 21 22 21 20 21 22 22 25 27 30 32 33 33 33 33 32 30 29 30 33 37 38 36 33 32 32 32 32 31 30 30 32 34 34 34 33 31 29 26 23 21 18 16 14 13 13 12 11
5 3 3 3 3 2 3 3 3 3 3 4 5 7 9 10 7 4 1 4 6 8 9 6 7 8 8 9 6 2 1 4 6 12 21 22 22 23 23 23 23 23 24 24 24 27 29 31 31 32 32 32 31 29 27 27 29 32 35 36 35 33 32 31 32 31 29 29 29 30 33 35 35 32 29 27 24 20 17 15 13 12 11 10 10 9
3 2 1 2 3 3 3 3 3 2 2 4 6 8 10 8 6 4 3 5 8 12 12 10 10 12 12 12 9 6 8 12 15 19 22 22 24 25 24 23 24 23 24 25 26 28 30 29 28 28 29 29 27 25 24 26 29 31 35 37 36 34 33 31 30 28 27 27 29 32 34 33 30 28 26 24 21 17 14 11 9 8 7 6 5 5
2 2 2 0 1 2 3 2 3 3 2 3 5 7 9 5 2 2 6 10 14 16 16 15 15 15 16 16 14 14 17 20 22 24 24 24 25 25 24 24 25 25 25 26 27 30 30 28 26 26 27 25 23 21 22 25 29 32 34 37 37 35 31 27 26 26 26 29 35 37 33 27 23 23 23 20 16 13 11 9 6 4 1 1 3 5
1 1 3 2 1 0 0 0 1 2 2 3 3 4 5 1 3 7 11 14 15 14 16 17 16 14 14 15 17 18 21 23 24 26 26 26 25 24 24 25 25 26 27 28 30 32 29 26 24 24 25 26 23 21 21 24 28 31 33 35 35 31 26 23 23 26 32 36 36 33 29 26 24 22 20 16 13 11 10 8 7 5 6 6 6 6
1 1 1 2 1 0 0 1 2 3 3 2 2 0 4 7 9 8 8 10 13 15 15 14 14 14 14 16 18 20 22 24 25 26 27 27 26 25 26 25 25 26 28 31 35 33 27 24 23 23 25 26 25 23 24 26 28 29 29 28 25 22 21 23 29 36 38 36 32 30 29 28 24 20 18 16 14 12 11 10 9 9 8 6 6 8
2 3 3 3 3 3 4 6 7 7 6 3 3 7 12 14 11 7 8 12 15 16 16 15 16 17 17 18 20 22 24 25 26 26 27 28 27 26 27 27 27 28 31 35 36 30 24 23 24 24 24 24 23 24 25 25 24 24 21 16 16 19 24 31 38 40 37 34 34 34 31 26 23 20 18 16 14 12 12 10 10 10 8 5 5 8
5 4 2 2 2 4 5 7 9 10 9 9 12 16 17 15 13 12 14 17 18 17 16 16 18 20 21 22 24 26 28 29 28 27 26 27 27 28 28 28 29 30 33 35 31 24 20 22 23 23 22 21 20 20 19 19 18 14 8 11 18 25 31 38 39 38 38 38 36 31 26 23 21 19 16 14 13 12 11 10 9 9 7 5 5 8
3 1 0 2 3 4 4 4 6 11 15 18 22 22 17 15 16 17 19 20 19 19 18 18 19 21 22 24 26 29 30 30 29 27 26 26 27 28 27 28 29 29 29 27 23 20 20 21 20 19 19 17 15 14 12 11 10 7 12 18 22 27 31 34 35 35 35 32 28 24 23 21 20 18 16 14 13 11 10 8 8 7 5 5 6 8
2 2 2 3 4 4 5 8 14 22 26 25 21 18 15 15 17 18 19 19 19 19 20 21 22 22 23 25 26 27 29 30 29 28 26 26 26 26 27 27 27 24 21 19 18 19 20 19 16 17 16 12 11 11 8 5 6 12 17 20 23 27 30 31 33 31 27 25 24 24 23 21 19 17 15 13 11 10 8 6 6 6 6 6 8 10
5 3 3 3 3 5 6 10 15 18 19 18 16 16 17 19 20 20 20 21 22 23 23 24 24 25 25 25 24 24 26 27 27 25 25 25 25 25 26 25 22 20 18 17 17 17 17 17 16 16 15 11 10 11 8 8 12 17 23 26 27 30 31 31 30 26 23 23 25 24 21 19 17 16 14 12 11 8 7 7 8 8 8 9 11 13
4 4 4 3 4 5 6 10 12 7 7 15 22 23 23 23 22 23 25 26 27 28 28 27 26 26 25 23 22 23 24 24 23 22 22 23 23 24 24 22 20 19 17 16 17 17 16 17 15 14 14 12 9 8 8 14 20 22 26 29 28 27 27 26 25 23 21 22 23 20 18 16 15 14 13 11 9 8 8 11 12 11 10 11 12 12
7 7 6 4 5 8 13 21 22 13 12 22 29 28 27 27 25 26 28 29 30 30 28 26 25 24 22 21 21 22 23 23 22 21 21 22 22 22 21 19 19 19 17 16 18 17 16 16 14 13 14 11 8 8 10 20 25 25 26 27 23 19 20 22 23 22 20 21 21 19 16 15 14 12 11 10 9 9 10 12 11 10 10 11 10 10
Wind_Direction
87 146 273 226 233 237 233 201 182 186 159 149 117 117 143 133 297 286 272 296 45 92 305 253 239 285 297 271 297 230 180 194 203 201 203 201 196 195 196 198 198 200 203 202 200 204 207 208 212 215 214 208 201 200 200 200 201 199 195 192 188 188 193 193 187 184 184 176 169 169 163 160 173 187 209 222 234 247 254 259 262 263 265 269 270 272
54 154 246 230 226 225 224 193 150 115 103 101 116 89 344 340 273 275 259 307 1 113 294 299 255 270 276 263 288 314 153 173 191 196 200 202 201 200 200 202 202 202 202 200 200 204 207 210 213 216 216 211 205 201 201 201 202 199 195 192 188 186 187 186 185 185 180 166 153 153 147 139 144 144 138 130 118 194 269 266 267 266 267 267 265 266
7 266 252 240 205 138 103 136 118 98 95 75 105 87 339 266 283 298 293 317 1 89 289 321 342 276 274 271 280 286 256 190 190 198 205 203 202 206 207 206 203 201 201 199 201 204 207 210 213 215 217 216 212 206 203 202 202 199 194 191 190 188 183 179 186 190 177 160 144 137 141 140 139 132 118 106 92 80 66 47 23 331 299 282 265 258
316 251 248 222 137 124 82 118 114 100 96 82 116 121 286 262 280 290 296 321 349 15 255 7 4 306 301 307 285 278 271 257 198 200 208 207 207 211 211 210 204 200 201 200 202 205 207 210 213 215 217 217 215 211 207 203 202 199 195 195 192 188 182 179 184 185 170 158 146 143 155 154 148 139 115 102 89 80 73 64 59 49 34 17 327 269
251 256 257 95 134 158 183 180 144 153 229 301 164 154 210 240 215 216 272 320 342 348 14 74 18 321 326 336 294 313 329 298 279 203 208 209 214 216 213 212 209 205 203 202 203 205 208 212 214 215 216 218 217 215 211 206 204 201 199 198 193 189 184 181 184 182 171 161 157 161 170 170 165 162 134 104 91 79 74 67 61 56 52 48 41 24
259 271 283 255 235 170 168 215 200 173 197 308 244 193 196 210 209 210 323 7 25 350 327 47 30 291 316 325 268 294 349 298 299 279 232 223 220 219 216 214 212 208 206 206 206 207 210 214 215 214 216 219 220 219 214 210 207 204 203 200 193 192 189 185 185 184 178 169 162 167 172 166 164 168 161 123 102 86 78 70 64 62 59 59 60 57
258 293 18 209 243 175 172 225 224 168 137 304 246 202 183 160 136 140 109 69 86 260 294 47 146 248 317 314 268 301 334 299 296 287 270 265 249 227 220 217 211 209 208 208 209 210 212 215 214 214 216 219 221 221 216 211 210 205 203 201 195 195 195 191 190 189 187 180 172 176 184 177 169 174 176 145 114 99 84 76 72 70 66 66 69 69
266 327 1 50 96 131 172 228 218 152 124 234 236 165 149 140 146 157 139 138 209 237 315 14 114 192 298 277 280 338 336 306 303 294 284 281 276 260 235 222 213 210 209 209 209 211 214 216 217 218 219 221 221 221 217 212 210 206 203 203 200 199 199 197 197 195 194 191 185 185 198 202 192 187 192 180 141 119 100 87 80 74 69 68 73 76
264 306 296 248 87 130 199 215 186 144 133 243 215 152 154 160 163 153 129 148 246 58 301 321 62 171 270 276 306 355 328 292 287 283 284 284 289 290 267 233 217 213 212 211 211 212 215 217 220 222 222 221 220 221 220 216 211 208 205 205 203 202 202 203 205 204 200 200 197 197 207 214 207 203 209 208 178 149 141 117 94 85 73 67 74 80
245 234 227 158 135 213 229 220 169 156 190 238 166 112 52 57 92 108 117 135 55 64 244 266 217 183 268 285 311 347 284 262 268 275 278 283 295 306 299 257 222 213 212 213 214 214 216 219 222 223 221 220 221 220 221 218 213 209 207 206 207 207 206 206 209 210 207 205 204 207 214 219 217 216 220 221 210 197 195 184 153 124 97 79 80 83
287 270 216 165 194 211 210 203 166 172 182 131 94 64 32 25 36 45 76 105 78 291 249 244 208 167 266 283 261 234 231 247 278 294 287 291 308 323 330 301 231 213 210 212 214 215 216 218 220 221 220 220 220 219 219 218 215 212 210 209 211 212 211 210 211 212 211 210 210 212 217 223 224 225 230 231 224 220 220 219 220 206 162 113 89 85
330 311 230 237 229 187 143 166 41 28 77 89 80 68 53 335 9 20 356 43 134 259 261 243 187 133 197 260 254 252 271 270 246 268 282 298 318 336 358 354 243 215 210 211 212 213 213 214 217 218 220 220 219 219 219 219 218 215 213 213 214 215 214 214 213 212 212 213 216 218 221 226 229 231 237 239 230 226 227 231 240 241 222 193 146 112
330 255 266 307 263 149 118 293 334 359 30 81 99 85 81 326 1 351 302 319 211 250 259 220 142 134 221 247 262 268 282 281 262 265 278 299 336 3 27 27 246 214 211 211 210 210 210 213 217 218 219 220 220 220 220 220 220 218 216 215 216 219 219 217 215 214 212 213 218 222 225 227 231 234 238 240 234 226 226 233 244 250 249 241 232 216
328 303 321 349 304 168 137 152 264 315 22 140 147 122 129 132 53 282 270 286 256 266 278 229 186 257 269 270 268 264 286 312 319 309 341 33 30 34 45 52 150 213 213 212 210 209 210 214 217 218 220 221 222 222 222 221 222 221 219 218 219 221 222 221 219 216 215 214 218 224 228 230 232 235 236 237 235 231 233 236 244 253 253 253 256 258
279 306 292 188 279 306 119 154 173 169 164 196 174 135 146 153 159 229 228 209 247 274 296 294 220 188 173 259 267 263 293 7 34 48 55 56 52 50 51 54 60 182 217 216 214 212 212 215 216 217 219 222 223 223 222 222 222 223 222 222 222 223 223 224 223 221 219 218 219 223 228 232 234 236 237 238 237 236 239 242 248 252 254 258 264 267
134 259 253 262 280 114 115 206 175 128 101 249 165 111 154 180 161 187 197 182 190 266 295 287 237 216 184 256 286 279 315 34 48 52 54 53 53 54 49 47 52 58 159 220 222 218 216 216 215 217 219 222 224 223 222 222 223 223 224 225 227 227 227 227 227 226 224 223 223 225 229 232 234 235 236 237 236 235 239 245 250 253 256 259 263 266
117 266 275 314 343 91 125 228 235 109 144 238 105 173 239 184 131 126 281 1 82 93 277 260 244 291 344 297 316 345 30 27 28 43 48 47 52 53 45 41 47 51 55 72 221 223 222 219 216 217 220 222 224 223 223 223 224 225 225 226 228 230 230 230 230 230 229 228 228 229 230 233 235 235 236 238 238 237 239 244 248 251 252 253 256 263
148 257 288 325 158 292 41 78 34 9 96 121 167 229 242 47 88 110 172 356 44 213 275 283 209 277 337 203 313 1 43 30 20 38 42 41 47 49 43 40 42 45 50 54 59 93 227 227 224 222 221 222 224 225 225 225 227 228 227 228 230 231 232 233 233 232 231 231 231 231 232 233 235 236 237 239 239 239 239 240 244 246 247 249 252 256
120 229 289 293 170 297 355 82 31 347 29 106 165 197 108 100 295 9 115 194 285 234 282 308 257 240 216 213 242 106 103 59 36 44 46 42 45 47 43 41 40 42 44 46 51 53 49 5 242 235 231 229 227 227 228 228 230 230 230 231 232 234 237 238 238 235 234 234 233 233 234 235 237 237 237 239 239 239 238 237 240 244 245 247 249 251
64 142 278 297 262 298 355 52 203 317 353 32 59 26 38 133 168 202 128 169 205 218 250 302 313 266 236 213 166 164 165 126 84 61 60 56 54 52 46 42 41 40 39 38 41 46 48 46 30 316 255 243 237 232 231 231 232 233 233 233 233 236 238 239 241 239 238 237 236 235 235 236 238 237 236 238 239 239 238 237 239 243 245 246 246 248
30 85 254 294 318 314 330 290 167 175 318 19 22 356 346 23 96 329 290 137 148 180 200 240 284 270 254 213 160 161 170 157 128 101 87 70 66 58 46 42 39 36 35 34 33 37 43 45 39 28 356 285 256 243 237 234 234 235 236 236 236 237 238 239 242 242 241 240 239 237 236 236 236 236 235 235 236 238 238 237 239 242 245 245 244 245
32 124 202 289 335 310 256 240 190 182 170 149 178 227 211 190 81 322 289 309 117 170 182 165 228 268 266 255 191 159 165 182 145 113 88 49 50 50 45 44 40 34 35 35 31 30 33 40 41 35 25 359 308 269 252 245 242 241 241 241 239 239 240 242 243 245 244 243 242 241 240 238 237 235 234 233 233 234 235 236 237 239 241 241 242 243
139 101 112 256 260 243 261 269 248 222 154 119 142 153 123 119 109 147 218 263 283 226 157 129 169 270 269 291 275 176 167 184 142 96 78 55 41 36 34 35 34 34 35 35 32 29 27 34 39 37 35 22 356 325 291 268 257 252 249 247 243 241 243 244 245 247 248 247 246 245 243 242 239 237 234 232 231 231 231 233 234 236 237 238 238 240
83 80 71 295 292 307 303 312 353 17 89 90 49 51 90 101 114 153 180 181 206 227 148 126 243 264 276 315 300 192 172 161 109 62 69 67 46 36 31 26 25 26 27 29 32 33 31 28 29 34 38 34 21 359 331 306 286 270 258 251 246 244 244 246 247 249 251 251 251 248 246 244 241 238 235 232 230 228 229 231 233 234 234 234 234 236
341 293 108 0 327 336 336 344 353 343 47 102 352 22 83 86 80 92 105 87 229 232 161 159 230 243 263 313 319 297 341 3 2 43 77 58 45 48 45 34 26 23 23 24 25 29 30 24 20 22 25 27 26 16 357 330 306 290 275 264 255 248 245 246 248 250 253 255 255 252 248 246 243 239 235 232 229 227 229 231 232 232 233 232 232 234
235 216 151 140 239 246 282 287 272 286 318 73 125 105 37 21 65 14 53 89 253 258 161 165 219 256 284 307 313 311 331 338 325 317 82 55 51 57 52 41 31 26 23 19 14 14 19 19 14 9 6 2 359 0 3 352 324 302 291 283 273 262 252 247 247 249 251 254 257 255 251 248 246 241 236 233 230 228 229 231 232 231 231 230 231 233
127 88 176 157 178 205 210 232 230 196 224 273 256 199 233 263 134 109 106 156 204 223 239 215 195 241 277 272 278 289 293 293 285 280 14 60 74 71 61 52 38 30 22 10 3 0 0 1 356 352 351 347 342 341 344 346 342 326 305 292 283 276 266 254 248 250 251 251 255 257 253 250 249 245 240 236 234 231 230 231 231 230 228 228 229 231
103 359 271 170 195 219 209 230 253 245 229 242 245 220 211 217 165 125 171 217 179 169 267 250 188 211 251 238 256 294 290 269 267 295 0 49 72 61 53 45 30 19 8 1 358 354 352 350 343 338 337 336 333 330 329 330 332 328 314 298 285 279 274 263 254 253 255 254 254 258 256 252 251 249 244 240 237 234 232 231 230 228 225 224 224 224
115 290 265 200 255 259 231 240 257 263 244 228 222 215 207 213 201 187 213 211 162 186 250 241 198 219 238 229 251 276 277 278 291 330 15 55 47 29 24 21 13 5 358 354 352 348 345 340 334 330 329 328 326 322 320 318 317 315 309 301 292 283 279 272 263 258 257 255 253 257 258 253 250 249 244 240 237 233 231 230 227 224 221 218 218 220
117 264 275 245 307 303 282 266 257 250 253 251 244 229 213 214 213 212 225 207 185 220 248 239 231 243 238 218 232 257 276 286 296 358 74 59 28 15 11 11 12 12 5 355 346 335 328 328 328 327 324 322 321 321 318 314 311 308 306 303 298 290 284 280 274 268 263 258 254 255 255 252 249 248 244 238 234 231 227 225 222 217 214 214 215 217
56 275 294 50 6 302 294 307 309 265 234 246 256 237 203 212 228 233 235 201 198 242 255 256 263 265 256 223 229 256 275 275 132 107 77 39 17 7 10 14 13 9 360 349 339 328 319 316 315 316 318 318 318 319 318 315 310 305 302 302 300 297 291 282 277 276 273 270 266 263 262 259 253 249 246 239 231 227 222 219 216 211 208 212 215 217
43 295 338 42 347 279 288 318 309 318 300 254 245 213 194 207 221 222 210 191 192 217 247 270 276 266 263 237 230 268 298 127 123 80 33 20 14 19 27 21 4 351 344 337 329 323 319 314 310 309 310 311 312 313 313 312 310 305 303 302 300 299 295 286 279 277 275 274 271 267 267 266 257 248 246 241 230 223 219 215 209 204 203 210 215 220
156 169 294 74 271 269 278 297 304 350 336 273 238 194 196 211 220 227 244 227 200 185 203 234 236 237 237 175 149 338 14 99 156 324 337 343 14 51 37 11 353 340 335 331 326 322 318 314 312 310 308 308 308 306 306 305 305 303 302 301 300 298 294 287 279 275 274 272 270 265 264 265 258 246 242 240 230 220 214 209 202 198 201 208 215 223
173 171 197 180 214 264 281 342 350 322 271 255 229 184 191 204 208 212 230 227 209 191 192 218 235 238 208 146 149 176 215 291 308 314 326 336 62 49 360 346 340 333 328 324 321 318 316 313 311 308 307 307 305 301 299 298 297 298 296 296 296 295 292 285 276 271 269 267 267 265 262 262 256 240 235 236 229 215 205 199 194 192 198 206 215 225
202 190 205 182 195 248 288 51 298 261 250 261 284 209 197 187 174 188 235 246 225 223 234 245 249 223 186 156 152 158 175 313 303 297 301 152 118 351 339 332 328 326 322 319 317 314 313 312 310 307 305 304 303 301 299 296 295 294 291 290 291 290 288 283 274 267 264 261 261 263 260 256 246 231 227 226 216 202 193 189 189 191 198 208 219 228
214 202 201 182 189 229 121 153 205 247 283 301 301 283 246 182 130 160 291 297 278 217 218 235 252 239 210 184 172 166 236 288 293 285 254 202 304 323 323 322 323 322 317 315 313 310 310 310 309 308 306 304 303 302 300 298 297 294 289 286 286 286 286 284 275 266 261 258 257 259 258 249 234 225 223 214 198 189 187 186 188 196 205 216 225 231
194 170 174 213 215 185 176 207 242 311 315 298 297 325 317 283 266 238 255 281 287 245 201 193 238 255 239 214 208 214 239 282 306 278 232 235 296 312 316 320 322 318 315 313 310 308 310 310 309 309 307 306 304 302 300 298 296 294 290 286 284 283 283 283 278 269 262 259 258 257 252 241 228 219 210 196 186 186 188 186 191 202 212 221 226 230
191 181 176 193 215 160 181 253 294 303 278 268 276 288 292 296 280 242 162 239 268 266 242 194 237 256 243 234 237 224 191 18 318 275 274 294 306 311 316 318 318 315 312 309 308 309 311 311 311 310 309 308 306 304 302 299 296 293 290 286 284 284 282 281 279 273 266 261 258 252 242 232 220 206 192 182 181 184 186 188 194 201 208 216 223 232
351 168 142 156 216 131 167 227 243 223 242 253 256 274 311 334 317 279 102 241 254 285 330 272 254 262 252 248 242 205 56 356 280 286 313 319 314 311 312 313 313 311 307 305 306 309 311 312 311 310 309 309 309 306 303 299 296 292 288 285 285 284 282 281 281 278 269 259 252 242 230 217 202 188 177 173 176 181 183 186 191 199 209 220 232 244
7 23 88 158 224 210 171 222 245 220 244 263 258 281 325 353 15 59 70 264 270 308 327 306 282 287 276 269 268 213 259 278 267 296 314 315 309 308 308 307 308 307 304 305 306 308 310 310 308 307 309 310 309 305 301 298 296 292 288 288 288 286 284 284 283 276 265 253 241 225 208 196 188 181 174 171 174 177 180 187 196 208 221 233 246 254
358 350 62 164 206 220 208 239 267 253 255 274 286 313 335 358 44 101 192 255 282 301 315 315 301 298 292 285 282 266 273 287 294 301 306 305 304 305 304 304 305 304 303 305 306 309 311 308 305 305 309 311 308 302 299 298 294 290 288 289 290 288 286 284 277 265 250 235 216 197 185 182 181 177 171 169 172 174 179 189 200 210 219 238 262 276
343 337 331 38 197 218 192 204 272 282 265 260 288 337 359 20 100 204 280 301 302 300 310 317 308 300 295 290 286 285 291 299 302 301 302 302 302 303 304 304 303 302 304 305 308 312 312 306 303 304 308 312 309 299 298 298 293 290 289 289 290 289 285 276 262 244 222 201 188 178 170 165 163 161 160 161 166 172 176 175 172 169 156 6 338 322
234 304 301 265 224 266 37 21 277 253 251 257 280 11 34 79 252 287 302 312 314 311 316 318 312 307 302 297 295 296 298 300 300 300 301 302 301 302 303 303 302 303 305 308 311 314 312 303 299 300 305 310 307 296 293 296 295 294 293 290 288 283 272 254 232 208 188 177 172 165 158 152 151 153 153 150 150 153 148 134 114 81 49 25 358 337
223 176 252 259 241 146 179 222 207 202 225 230 189 331 302 282 283 298 309 314 318 318 316 310 303 299 298 297 298 299 297 296 297 300 302 301 301 302 301 300 302 303 305 309 311 312 308 298 295 297 302 306 303 296 294 296 297 299 297 291 282 266 243 217 195 181 173 168 159 149 144 144 144 143 138 133 130 124 111 96 77 55 38 17 348 335
217 199 213 242 243 217 213 232 251 271 279 274 285 306 302 291 279 286 306 308 308 306 301 294 289 288 288 291 294 294 293 293 294 298 301 300 300 301 301 301 303 304 305 308 309 307 301 295 295 298 300 301 300 298 297 296 298 300 294 273 244 220 198 179 170 165 159 151 144 140 140 140 138 134 129 122 113 100 86 74 58 43 31 12 341 329
250 246 226 212 258 293 278 252 256 274 282 291 305 309 304 290 273 279 299 304 301 298 293 289 289 290 291 292 292 290 290 290 290 294 298 299 299 300 300 299 301 304 306 307 305 301 296 295 294 294 294 297 302 302 297 293 294 291 258 191 178 172 162 155 151 147 142 139 140 142 142 139 135 134 129 115 100 88 78 64 47 37 33 18 337 320
283 283 263 236 269 305 295 260 279 295 296 301 306 305 300 289 277 281 294 299 298 296 292 291 293 294 293 291 289 287 287 287 289 292 296 297 297 296 297 298 302 305 307 305 302 300 298 295 292 289 287 295 309 308 295 288 278 226 163 149 150 149 145 143 142 141 140 142 144 143 140 134 129 126 120 107 93 84 74 54 38 37 36 10 342 335
294 18 335 251 234 240 250 271 289 292 292 295 296 294 296 297 289 287 292 296 295 292 289 289 291 290 290 292 291 289 288 288 289 291 293 294 293 293 295 299 303 306 307 305 304 302 297 292 289 285 281 290 312 305 280 249 214 186 165 152 145 141 140 140 139 139 140 142 140 137 132 125 119 115 112 105 96 87 73 52 45 49 44 28 18 15
254 291 288 254 267 277 270 274 282 287 290 291 288 287 296 302 301 298 298 297 295 293 293 293 292 290 290 293 296 295 292 290 291 292 292 290 289 292 297 300 302 304 306 308 306 299 289 287 287 280 275 286 305 292 252 182 156 150 147 143 139 138 141 143 139 135 136 138 138 133 125 118 116 116 116 117 110 95 80 76 77 73 63 52 41 30
230 257 256 253 287 282 263 270 277 279 281 285 288 293 298 302 303 301 300 300 299 299 299 299 297 295 292 292 296 298 296 294 295 294 289 287 289 294 297 299 300 302 303 303 300 291 284 287 287 279 278 283 283 271 227 175 157 145 140 142 143 144 147 146 136 129 129 134 136 134 127 125 127 126 124 122 114 102 99 97 92 81 68 55 43 29
211 236 235 225 248 255 264 276 281 275 267 280 289 295 299 301 302 300 299 300 300 300 301 300 298 298 296 295 297 298 296 295 295 291 286 286 290 293 294 296 300 301 299 294 292 291 291 289 282 278 279 271 252 241 205 175 168 162 155 152 152 154 153 144 133 129 129 133 138 139 136 134 134 132 131 126 116 114 111 100 84 67 56 50 42 32